Location: Newark
(27.9675°N, 86.8869°E)
Time: 05:56:29
(UTC+00:00)

Courier 1B Rocket - Pass Details

Date: 20 October 2019
Orbit: 920 x 1202 km, 28.2° (Epoch: 21 November)

Event Time Altitude Azimuth Distance (km) Brightness Sun altitude
Rises 18:54:46 0° 219° (SW) 3,671 - -67.9°
Reaches altitude 10° 18:57:57 10° 207° (SSW) 2,684 - -67.4°
Maximum altitude 19:03:04 25° 153° (SSE) 1,777 - -66.6°
Drops below altitude 10° 19:08:04 10° 100° (E) 2,608 - -65.8°
Sets 19:11:05 0° 87° (E) 3,547 - -65.4°
